TimeCST,TemperatureF,Dew PointF,Humidity,Sea Level PressureIn,VisibilityMPH,Wind Direction,Wind SpeedMPH,Gust SpeedMPH,PrecipitationIn,Events,Conditions,WindDirDegrees,DateUTC
12:53 AM,66.0,60.1,81,29.96,10.0,North,10.4,-,N/A,,Clear,360,2013-02-13 06:53:00
1:53 AM,66.0,60.1,81,29.96,9.0,North,6.9,-,N/A,,Clear,350,2013-02-13 07:53:00
2:53 AM,64.9,60.1,84,29.96,9.0,NNW,10.4,-,N/A,,Clear,340,2013-02-13 08:53:00
3:53 AM,64.9,59.0,81,29.95,9.0,North,11.5,-,N/A,,Clear,360,2013-02-13 09:53:00
4:53 AM,64.9,57.9,78,29.98,9.0,North,10.4,-,N/A,,Mostly Cloudy,350,2013-02-13 10:53:00
5:53 AM,66.0,53.1,63,30.00,10.0,North,17.3,-,N/A,,Overcast,360,2013-02-13 11:53:00
6:53 AM,64.0,53.1,67,30.04,10.0,North,17.3,-,N/A,,Overcast,360,2013-02-13 12:53:00
7:19 AM,64.4,57.2,77,30.04,9.0,North,18.4,27.6,N/A,,Overcast,10,2013-02-13 13:19:00
7:45 AM,62.6,55.4,77,30.06,9.0,North,21.9,29.9,N/A,,Overcast,10,2013-02-13 13:45:00
7:53 AM,63.0,54.0,72,30.07,9.0,North,17.3,27.6,N/A,,Overcast,10,2013-02-13 13:53:00
8:53 AM,63.0,53.1,70,30.10,9.0,North,18.4,26.5,N/A,,Overcast,10,2013-02-13 14:53:00
9:03 AM,62.6,53.6,72,30.10,9.0,North,16.1,24.2,N/A,,Overcast,360,2013-02-13 15:03:00
9:36 AM,62.6,51.8,68,30.12,9.0,North,17.3,25.3,N/A,,Overcast,10,2013-02-13 15:36:00
9:53 AM,63.0,51.1,65,30.12,9.0,North,16.1,24.2,N/A,,Overcast,10,2013-02-13 15:53:00
10:53 AM,63.0,48.0,58,30.14,9.0,North,18.4,-,N/A,,Overcast,10,2013-02-13 16:53:00
11:53 AM,64.0,48.0,56,30.13,9.0,North,16.1,-,N/A,,Mostly Cloudy,10,2013-02-13 17:53:00
12:53 PM,63.0,45.0,52,30.10,9.0,NNE,18.4,25.3,N/A,,Clear,20,2013-02-13 18:53:00
1:53 PM,62.1,43.0,50,30.06,9.0,North,15.0,-,N/A,,Clear,10,2013-02-13 19:53:00
2:53 PM,63.0,45.0,52,30.05,9.0,NNE,18.4,23.0,N/A,,Clear,30,2013-02-13 20:53:00
3:53 PM,61.0,45.0,56,30.03,9.0,North,15.0,-,N/A,,Clear,10,2013-02-13 21:53:00
4:53 PM,60.1,45.0,57,30.04,9.0,NNE,12.7,-,N/A,,Clear,20,2013-02-13 22:53:00
5:53 PM,59.0,45.0,60,30.03,9.0,NNE,11.5,-,N/A,,Clear,30,2013-02-13 23:53:00
6:53 PM,57.9,44.1,60,30.04,10.0,NNE,8.1,-,N/A,,Clear,20,2013-02-14 00:53:00
7:53 PM,57.9,46.0,65,30.07,10.0,NNE,6.9,-,N/A,,Clear,20,2013-02-14 01:53:00
8:53 PM,59.0,46.9,64,30.09,10.0,NNE,3.5,-,N/A,,Clear,20,2013-02-14 02:53:00
9:53 PM,59.0,46.9,64,30.09,10.0,NE,6.9,-,N/A,,Clear,40,2013-02-14 03:53:00
10:53 PM,57.9,46.9,67,30.10,10.0,NE,4.6,-,N/A,,Clear,50,2013-02-14 04:53:00
11:53 PM,57.0,46.9,69,30.10,10.0,Calm,Calm,-,N/A,,Clear,0,2013-02-14 05:53:00